Location: Wien
(48.2082°N, 16.3738°E)
Time: 11:59:18
(UTC+02:00)

Tiros 1 despin weight - Pass Details

Date: 15 September 2024
Orbit: 573 x 615 km, 48.2° (Epoch: 06 October)

Event Time Altitude Azimuth Distance (km) Brightness Sun altitude
Rises 04:05:40 0° 221° (SW) 2,862 - -23.5°
Reaches altitude 10° 04:08:07 10° 212° (SSW) 1,966 - -23.2°
Exits shadow 04:11:48 32° 159° (SSE) 1,051 ? -22.7°
Maximum altitude 04:12:11 33° 148° (SSE) 1,040 ? -22.6°
Drops below altitude 10° 04:16:16 10° 85° (E) 1,983 ? -22.1°
Sets 04:18:44 0° 76° (ENE) 2,892 ? -21.7°
